Year,Month,Day,Hour,Minute,Value (Times are PST for insolation in W/m^2)
2011,07,09,00,00,0.00
2011,07,09,00,01,0.00
2011,07,09,00,02,0.00
2011,07,09,00,03,0.00
2011,07,09,00,04,0.00
2011,07,09,00,05,0.00
2011,07,09,00,06,0.00
2011,07,09,00,07,0.00
2011,07,09,00,08,0.00
2011,07,09,00,09,0.00
2011,07,09,00,10,0.00
2011,07,09,00,11,0.00
2011,07,09,00,12,0.00
2011,07,09,00,13,0.00
2011,07,09,00,14,0.00
2011,07,09,00,15,0.00
2011,07,09,00,16,0.00
2011,07,09,00,17,0.00
2011,07,09,00,18,0.00
2011,07,09,00,19,0.00
2011,07,09,00,20,0.00
2011,07,09,00,21,0.00
2011,07,09,00,22,0.00
2011,07,09,00,23,0.00
2011,07,09,00,24,0.00
2011,07,09,00,25,0.00
2011,07,09,00,26,0.00
2011,07,09,00,27,0.00
2011,07,09,00,28,0.00
2011,07,09,00,29,0.00
2011,07,09,00,30,0.00
2011,07,09,00,31,0.00
2011,07,09,00,32,0.00
2011,07,09,00,33,0.00
2011,07,09,00,34,0.00
2011,07,09,00,35,0.00
2011,07,09,00,36,0.00
2011,07,09,00,37,0.00
2011,07,09,00,38,0.00
2011,07,09,00,39,0.00
2011,07,09,00,40,0.00
2011,07,09,00,41,0.00
2011,07,09,00,42,0.00
2011,07,09,00,43,0.00
2011,07,09,00,44,0.00
2011,07,09,00,45,0.00
2011,07,09,00,46,0.00
2011,07,09,00,47,0.00
2011,07,09,00,48,0.00
2011,07,09,00,49,0.00
2011,07,09,00,50,0.00
2011,07,09,00,51,0.00
2011,07,09,00,52,0.00
2011,07,09,00,53,0.00
2011,07,09,00,54,0.00
2011,07,09,00,55,0.00
2011,07,09,00,56,0.00
2011,07,09,00,57,0.00
2011,07,09,00,58,0.00
2011,07,09,00,59,0.00
2011,07,09,01,00,0.00
2011,07,09,01,01,0.00
2011,07,09,01,02,0.00
2011,07,09,01,03,0.00
2011,07,09,01,04,0.00
2011,07,09,01,05,0.00
2011,07,09,01,06,0.00
2011,07,09,01,07,0.00
2011,07,09,01,08,0.00
2011,07,09,01,09,0.00
2011,07,09,01,10,0.00
2011,07,09,01,11,0.00
2011,07,09,01,12,0.00
2011,07,09,01,13,0.00
2011,07,09,01,14,0.00
2011,07,09,01,15,0.00
2011,07,09,01,16,0.00
2011,07,09,01,17,0.00
2011,07,09,01,18,0.00
2011,07,09,01,19,0.00
2011,07,09,01,20,0.00
2011,07,09,01,21,0.00
2011,07,09,01,22,0.00
2011,07,09,01,23,0.00
2011,07,09,01,24,0.00
2011,07,09,01,25,0.00
2011,07,09,01,26,0.00
2011,07,09,01,27,0.00
2011,07,09,01,28,0.00
2011,07,09,01,29,0.00
2011,07,09,01,30,0.00
2011,07,09,01,31,0.00
2011,07,09,01,32,0.00
2011,07,09,01,33,0.00
2011,07,09,01,34,0.00
2011,07,09,01,35,0.00
2011,07,09,01,36,0.00
2011,07,09,01,37,0.00
2011,07,09,01,38,0.00
2011,07,09,01,39,0.00
2011,07,09,01,40,0.00
2011,07,09,01,41,0.00
2011,07,09,01,42,0.00
2011,07,09,01,43,0.00
2011,07,09,01,44,0.00
2011,07,09,01,45,0.00
2011,07,09,01,46,0.00
2011,07,09,01,47,0.00
2011,07,09,01,48,0.00
2011,07,09,01,49,0.00
2011,07,09,01,50,0.00
2011,07,09,01,51,0.00
2011,07,09,01,52,0.00
2011,07,09,01,53,0.00
2011,07,09,01,54,0.00
2011,07,09,01,55,0.00
2011,07,09,01,56,0.00
2011,07,09,01,57,0.00
2011,07,09,01,58,0.00
2011,07,09,01,59,0.00
2011,07,09,02,00,0.00
2011,07,09,02,01,0.00
2011,07,09,02,02,0.00
2011,07,09,02,03,0.00
2011,07,09,02,04,0.00
2011,07,09,02,05,0.00
2011,07,09,02,06,0.00
2011,07,09,02,07,0.00
2011,07,09,02,08,0.00
2011,07,09,02,09,0.00
2011,07,09,02,10,0.00
2011,07,09,02,11,0.00
2011,07,09,02,12,0.00
2011,07,09,02,13,0.00
2011,07,09,02,14,0.00
2011,07,09,02,15,0.00
2011,07,09,02,16,0.00
2011,07,09,02,17,0.00
2011,07,09,02,18,0.00
2011,07,09,02,19,0.00
2011,07,09,02,20,0.00
2011,07,09,02,21,0.00
2011,07,09,02,22,0.00
2011,07,09,02,23,0.00
2011,07,09,02,24,0.00
2011,07,09,02,25,0.00
2011,07,09,02,26,0.00
2011,07,09,02,27,0.00
2011,07,09,02,28,0.00
2011,07,09,02,29,0.00
2011,07,09,02,30,0.00
2011,07,09,02,31,0.00
2011,07,09,02,32,0.00
2011,07,09,02,33,0.00
2011,07,09,02,34,0.00
2011,07,09,02,35,0.00
2011,07,09,02,36,0.00
2011,07,09,02,37,0.00
2011,07,09,02,38,0.00
2011,07,09,02,39,0.00
2011,07,09,02,40,0.00
2011,07,09,02,41,0.00
2011,07,09,02,42,0.00
2011,07,09,02,43,0.00
2011,07,09,02,44,0.00
2011,07,09,02,45,0.00
2011,07,09,02,46,0.00
2011,07,09,02,47,0.00
2011,07,09,02,48,0.00
2011,07,09,02,49,0.00
2011,07,09,02,50,0.00
2011,07,09,02,51,0.00
2011,07,09,02,52,0.00
2011,07,09,02,53,0.00
2011,07,09,02,54,0.00
2011,07,09,02,55,0.00
2011,07,09,02,56,0.00
2011,07,09,02,57,0.00
2011,07,09,02,58,0.00
2011,07,09,02,59,0.00
2011,07,09,03,00,0.00
2011,07,09,03,01,0.00
2011,07,09,03,02,0.00
2011,07,09,03,03,0.00
2011,07,09,03,04,0.00
2011,07,09,03,05,0.00
2011,07,09,03,06,0.00
2011,07,09,03,07,0.00
2011,07,09,03,08,0.00
2011,07,09,03,09,0.00
2011,07,09,03,10,0.00
2011,07,09,03,11,0.00
2011,07,09,03,12,0.00
2011,07,09,03,13,0.00
2011,07,09,03,14,0.00
2011,07,09,03,15,0.00
2011,07,09,03,16,0.00
2011,07,09,03,17,0.00
2011,07,09,03,18,0.00
2011,07,09,03,19,0.00
2011,07,09,03,20,0.00
2011,07,09,03,21,0.00
2011,07,09,03,22,0.00
2011,07,09,03,23,0.00
2011,07,09,03,24,0.00
2011,07,09,03,25,0.00
2011,07,09,03,26,0.00
2011,07,09,03,27,0.00
2011,07,09,03,28,0.00
2011,07,09,03,29,0.00
2011,07,09,03,30,0.00
2011,07,09,03,31,0.00
2011,07,09,03,32,0.00
2011,07,09,03,33,0.00
2011,07,09,03,34,0.00
2011,07,09,03,35,0.00
2011,07,09,03,36,0.00
2011,07,09,03,37,0.00
2011,07,09,03,38,0.00
2011,07,09,03,39,0.00
2011,07,09,03,40,0.00
2011,07,09,03,41,0.00
2011,07,09,03,42,0.00
2011,07,09,03,43,0.00
2011,07,09,03,44,0.00
2011,07,09,03,45,0.00
2011,07,09,03,46,0.00
2011,07,09,03,47,0.00
2011,07,09,03,48,0.00
2011,07,09,03,49,0.00
2011,07,09,03,50,0.00
2011,07,09,03,51,0.00
2011,07,09,03,52,0.00
2011,07,09,03,53,0.00
2011,07,09,03,54,0.00
2011,07,09,03,55,0.00
2011,07,09,03,56,0.00
2011,07,09,03,57,0.00
2011,07,09,03,58,0.00
2011,07,09,03,59,0.00
2011,07,09,04,00,0.00
2011,07,09,04,01,0.00
2011,07,09,04,02,0.00
2011,07,09,04,03,0.00
2011,07,09,04,04,0.00
2011,07,09,04,05,0.00
2011,07,09,04,06,0.00
2011,07,09,04,07,0.00
2011,07,09,04,08,0.00
2011,07,09,04,09,0.00
2011,07,09,04,10,0.00
2011,07,09,04,11,0.00
2011,07,09,04,12,0.00
2011,07,09,04,13,0.00
2011,07,09,04,14,0.00
2011,07,09,04,15,0.00
2011,07,09,04,16,0.00
2011,07,09,04,17,0.00
2011,07,09,04,18,0.00
2011,07,09,04,19,0.00
2011,07,09,04,20,0.00
2011,07,09,04,21,0.00
2011,07,09,04,22,0.00
2011,07,09,04,23,0.00
2011,07,09,04,24,0.00
2011,07,09,04,25,0.00
2011,07,09,04,26,0.00
2011,07,09,04,27,0.00
2011,07,09,04,28,0.00
2011,07,09,04,29,0.00
2011,07,09,04,30,0.00
2011,07,09,04,31,0.00
2011,07,09,04,32,0.00
2011,07,09,04,33,0.00
2011,07,09,04,34,0.00
2011,07,09,04,35,0.00
2011,07,09,04,36,0.00
2011,07,09,04,37,0.00
2011,07,09,04,38,0.00
2011,07,09,04,39,0.00
2011,07,09,04,40,0.00
2011,07,09,04,41,0.00
2011,07,09,04,42,0.00
2011,07,09,04,43,0.00
2011,07,09,04,44,0.00
2011,07,09,04,45,0.00
2011,07,09,04,46,0.00
2011,07,09,04,47,0.00
2011,07,09,04,48,0.00
2011,07,09,04,49,0.00
2011,07,09,04,50,0.00
2011,07,09,04,51,0.00
2011,07,09,04,52,0.00
2011,07,09,04,53,0.00
2011,07,09,04,54,0.00
2011,07,09,04,55,0.00
2011,07,09,04,56,0.00
2011,07,09,04,57,0.00
2011,07,09,04,58,0.00
2011,07,09,04,59,0.00
2011,07,09,05,00,0.00
2011,07,09,05,01,0.00
2011,07,09,05,02,0.00
2011,07,09,05,03,0.00
2011,07,09,05,04,0.00
2011,07,09,05,05,0.00
2011,07,09,05,06,0.00
2011,07,09,05,07,0.00
2011,07,09,05,08,0.00
2011,07,09,05,09,0.00
2011,07,09,05,10,0.00
2011,07,09,05,11,0.00
2011,07,09,05,12,0.00
2011,07,09,05,13,0.00
2011,07,09,05,14,0.00
2011,07,09,05,15,0.00
2011,07,09,05,16,0.00
2011,07,09,05,17,0.00
2011,07,09,05,18,0.00
2011,07,09,05,19,0.00
2011,07,09,05,20,0.00
2011,07,09,05,21,1.10
2011,07,09,05,22,5.00
2011,07,09,05,23,5.00
2011,07,09,05,24,5.00
2011,07,09,05,25,5.00
2011,07,09,05,26,5.00
2011,07,09,05,27,6.70
2011,07,09,05,28,7.00
2011,07,09,05,29,7.00
2011,07,09,05,30,7.00
2011,07,09,05,31,7.70
2011,07,09,05,32,9.00
2011,07,09,05,33,9.00
2011,07,09,05,34,9.00
2011,07,09,05,35,10.60
2011,07,09,05,36,11.00
2011,07,09,05,37,11.00
2011,07,09,05,38,11.20
2011,07,09,05,39,12.00
2011,07,09,05,40,12.00
2011,07,09,05,41,12.00
2011,07,09,05,42,13.30
2011,07,09,05,43,14.00
2011,07,09,05,44,14.00
2011,07,09,05,45,14.00
2011,07,09,05,46,16.00
2011,07,09,05,47,16.00
2011,07,09,05,48,16.00
2011,07,09,05,49,16.90
2011,07,09,05,50,18.00
2011,07,09,05,51,18.00
2011,07,09,05,52,18.00
2011,07,09,05,53,18.90
2011,07,09,05,54,21.10
2011,07,09,05,55,23.30
2011,07,09,05,56,25.00
2011,07,09,05,57,26.10
2011,07,09,05,58,31.30
2011,07,09,05,59,40.40
2011,07,09,06,00,47.40
2011,07,09,06,01,52.20
2011,07,09,06,02,53.90
2011,07,09,06,03,54.00
2011,07,09,06,04,54.40
2011,07,09,06,05,56.60
2011,07,09,06,06,59.70
2011,07,09,06,07,59.90
2011,07,09,06,08,56.70
2011,07,09,06,09,59.00
2011,07,09,06,10,54.90
2011,07,09,06,11,42.10
2011,07,09,06,12,31.40
2011,07,09,06,13,28.00
2011,07,09,06,14,27.30
2011,07,09,06,15,26.00
2011,07,09,06,16,26.00
2011,07,09,06,17,26.00
2011,07,09,06,18,26.00
2011,07,09,06,19,26.00
2011,07,09,06,20,26.00
2011,07,09,06,21,26.30
2011,07,09,06,22,28.00
2011,07,09,06,23,28.00
2011,07,09,06,24,28.00
2011,07,09,06,25,28.00
2011,07,09,06,26,29.50
2011,07,09,06,27,30.00
2011,07,09,06,28,30.00
2011,07,09,06,29,30.30
2011,07,09,06,30,32.00
2011,07,09,06,31,32.00
2011,07,09,06,32,32.50
2011,07,09,06,33,33.00
2011,07,09,06,34,33.00
2011,07,09,06,35,34.60
2011,07,09,06,36,35.00
2011,07,09,06,37,37.10
2011,07,09,06,38,39.20
2011,07,09,06,39,40.00
2011,07,09,06,40,40.70
2011,07,09,06,41,42.90
2011,07,09,06,42,46.90
2011,07,09,06,43,52.70
2011,07,09,06,44,61.10
2011,07,09,06,45,69.20
2011,07,09,06,46,74.30
2011,07,09,06,47,77.00
2011,07,09,06,48,76.10
2011,07,09,06,49,72.30
2011,07,09,06,50,68.40
2011,07,09,06,51,63.80
2011,07,09,06,52,59.20
2011,07,09,06,53,56.30
2011,07,09,06,54,54.20
2011,07,09,06,55,57.10
2011,07,09,06,56,61.80
2011,07,09,06,57,55.40
2011,07,09,06,58,50.10
2011,07,09,06,59,49.00
2011,07,09,07,00,47.60
2011,07,09,07,01,46.20
2011,07,09,07,02,44.20
2011,07,09,07,03,40.00
2011,07,09,07,04,40.00
2011,07,09,07,05,39.70
2011,07,09,07,06,39.00
2011,07,09,07,07,39.00
2011,07,09,07,08,37.70
2011,07,09,07,09,37.00
2011,07,09,07,10,37.00
2011,07,09,07,11,37.00
2011,07,09,07,12,37.20
2011,07,09,07,13,39.20
2011,07,09,07,14,40.00
2011,07,09,07,15,40.80
2011,07,09,07,16,42.00
2011,07,09,07,17,42.00
2011,07,09,07,18,43.50
2011,07,09,07,19,45.70
2011,07,09,07,20,42.20
2011,07,09,07,21,42.30
2011,07,09,07,22,44.50
2011,07,09,07,23,46.00
2011,07,09,07,24,46.00
2011,07,09,07,25,46.00
2011,07,09,07,26,46.00
2011,07,09,07,27,44.40
2011,07,09,07,28,45.80
2011,07,09,07,29,49.00
2011,07,09,07,30,49.00
2011,07,09,07,31,48.40
2011,07,09,07,32,46.60
2011,07,09,07,33,45.00
2011,07,09,07,34,44.00
2011,07,09,07,35,44.00
2011,07,09,07,36,45.70
2011,07,09,07,37,44.20
2011,07,09,07,38,45.90
2011,07,09,07,39,62.60
2011,07,09,07,40,78.40
2011,07,09,07,41,65.50
2011,07,09,07,42,50.50
2011,07,09,07,43,46.00
2011,07,09,07,44,46.00
2011,07,09,07,45,46.90
2011,07,09,07,46,57.00
2011,07,09,07,47,52.30
2011,07,09,07,48,46.30
2011,07,09,07,49,47.80
2011,07,09,07,50,50.10
2011,07,09,07,51,51.00
2011,07,09,07,52,49.50
2011,07,09,07,53,49.00
2011,07,09,07,54,49.00
2011,07,09,07,55,51.00
2011,07,09,07,56,51.00
2011,07,09,07,57,51.70
2011,07,09,07,58,53.50
2011,07,09,07,59,56.30
2011,07,09,08,00,63.40
2011,07,09,08,01,69.20
2011,07,09,08,02,71.80
2011,07,09,08,03,96.20
2011,07,09,08,04,123.50
2011,07,09,08,05,153.80
2011,07,09,08,06,173.60
2011,07,09,08,07,232.70
2011,07,09,08,08,295.60
2011,07,09,08,09,315.00
2011,07,09,08,10,315.00
2011,07,09,08,11,126.50
2011,07,09,08,12,76.50
2011,07,09,08,13,74.30
2011,07,09,08,14,82.40
2011,07,09,08,15,84.80
2011,07,09,08,16,76.50
2011,07,09,08,17,63.00
2011,07,09,08,18,67.40
2011,07,09,08,19,69.80
2011,07,09,08,20,68.70
2011,07,09,08,21,62.50
2011,07,09,08,22,63.20
2011,07,09,08,23,76.10
2011,07,09,08,24,74.50
2011,07,09,08,25,60.00
2011,07,09,08,26,57.40
2011,07,09,08,27,62.00
2011,07,09,08,28,89.80
2011,07,09,08,29,192.00
2011,07,09,08,30,235.60
2011,07,09,08,31,400.30
2011,07,09,08,32,400.20
2011,07,09,08,33,398.60
2011,07,09,08,34,405.40
2011,07,09,08,35,414.60
2011,07,09,08,36,422.60
2011,07,09,08,37,430.60
2011,07,09,08,38,436.80
2011,07,09,08,39,441.40
2011,07,09,08,40,443.60
2011,07,09,08,41,445.00
2011,07,09,08,42,446.60
2011,07,09,08,43,448.00
2011,07,09,08,44,449.60
2011,07,09,08,45,458.10
2011,07,09,08,46,462.20
2011,07,09,08,47,464.30
2011,07,09,08,48,466.80
2011,07,09,08,49,471.20
2011,07,09,08,50,476.40
2011,07,09,08,51,480.30
2011,07,09,08,52,484.10
2011,07,09,08,53,488.40
2011,07,09,08,54,489.90
2011,07,09,08,55,492.00
2011,07,09,08,56,493.10
2011,07,09,08,57,499.50
2011,07,09,08,58,505.80
2011,07,09,08,59,509.10
2011,07,09,09,00,513.20
2011,07,09,09,01,516.40
2011,07,09,09,02,519.50
2011,07,09,09,03,521.80
2011,07,09,09,04,527.30
2011,07,09,09,05,530.10
2011,07,09,09,06,533.40
2011,07,09,09,07,525.90
2011,07,09,09,08,525.80
2011,07,09,09,09,538.20
2011,07,09,09,10,542.60
2011,07,09,09,11,536.70
2011,07,09,09,12,546.10
2011,07,09,09,13,555.30
2011,07,09,09,14,558.20
2011,07,09,09,15,549.60
2011,07,09,09,16,532.40
2011,07,09,09,17,524.10
2011,07,09,09,18,560.50
2011,07,09,09,19,576.70
2011,07,09,09,20,578.20
2011,07,09,09,21,582.20
2011,07,09,09,22,584.20
2011,07,09,09,23,586.50
2011,07,09,09,24,590.30
2011,07,09,09,25,592.00
2011,07,09,09,26,594.70
2011,07,09,09,27,599.90
2011,07,09,09,28,601.00
2011,07,09,09,29,608.00
2011,07,09,09,30,607.00
2011,07,09,09,31,599.80
2011,07,09,09,32,584.60
2011,07,09,09,33,565.10
2011,07,09,09,34,549.00
2011,07,09,09,35,543.60
2011,07,09,09,36,580.90
2011,07,09,09,37,618.70
2011,07,09,09,38,636.30
2011,07,09,09,39,648.50
2011,07,09,09,40,654.90
2011,07,09,09,41,655.70
2011,07,09,09,42,648.00
2011,07,09,09,43,629.70
2011,07,09,09,44,597.70
2011,07,09,09,45,566.90
2011,07,09,09,46,577.20
2011,07,09,09,47,628.00
2011,07,09,09,48,631.70
2011,07,09,09,49,648.00
2011,07,09,09,50,661.00
2011,07,09,09,51,656.60
2011,07,09,09,52,650.00
2011,07,09,09,53,620.60
2011,07,09,09,54,631.70
2011,07,09,09,55,639.10
2011,07,09,09,56,589.80
2011,07,09,09,57,593.40
2011,07,09,09,58,608.40
2011,07,09,09,59,642.50
2011,07,09,10,00,683.10
2011,07,09,10,01,712.30
2011,07,09,10,02,680.60
2011,07,09,10,03,636.80
2011,07,09,10,04,680.50
2011,07,09,10,05,718.80
2011,07,09,10,06,743.20
2011,07,09,10,07,725.50
2011,07,09,10,08,711.00
2011,07,09,10,09,705.70
2011,07,09,10,10,707.00
2011,07,09,10,11,707.00
2011,07,09,10,12,695.60
2011,07,09,10,13,693.40
2011,07,09,10,14,722.30
2011,07,09,10,15,739.80
2011,07,09,10,16,745.40
2011,07,09,10,17,749.30
2011,07,09,10,18,751.70
2011,07,09,10,19,755.20
2011,07,09,10,20,752.20
2011,07,09,10,21,754.00
2011,07,09,10,22,750.00
2011,07,09,10,23,737.20
2011,07,09,10,24,738.20
2011,07,09,10,25,735.60
2011,07,09,10,26,744.90
2011,07,09,10,27,758.80
2011,07,09,10,28,761.40
2011,07,09,10,29,752.00
2011,07,09,10,30,750.80
2011,07,09,10,31,744.20
2011,07,09,10,32,745.70
2011,07,09,10,33,752.70
2011,07,09,10,34,754.90
2011,07,09,10,35,758.30
2011,07,09,10,36,769.80
2011,07,09,10,37,789.00
2011,07,09,10,38,808.30
2011,07,09,10,39,819.00
2011,07,09,10,40,824.70
2011,07,09,10,41,841.80
2011,07,09,10,42,842.70
2011,07,09,10,43,833.20
2011,07,09,10,44,832.50
2011,07,09,10,45,831.40
2011,07,09,10,46,831.00
2011,07,09,10,47,834.30
2011,07,09,10,48,841.00
2011,07,09,10,49,835.10
2011,07,09,10,50,825.00
2011,07,09,10,51,817.30
2011,07,09,10,52,813.30
2011,07,09,10,53,806.80
2011,07,09,10,54,809.50
2011,07,09,10,55,807.10
2011,07,09,10,56,809.00
2011,07,09,10,57,809.20
2011,07,09,10,58,812.40
2011,07,09,10,59,816.00
2011,07,09,11,00,818.90
2011,07,09,11,01,822.40
2011,07,09,11,02,825.40
2011,07,09,11,03,826.00
2011,07,09,11,04,829.60
2011,07,09,11,05,827.10
2011,07,09,11,06,831.00
2011,07,09,11,07,831.00
2011,07,09,11,08,830.50
2011,07,09,11,09,826.40
2011,07,09,11,10,820.50
2011,07,09,11,11,819.00
2011,07,09,11,12,817.10
2011,07,09,11,13,817.00
2011,07,09,11,14,818.00
2011,07,09,11,15,820.20
2011,07,09,11,16,819.90
2011,07,09,11,17,822.20
2011,07,09,11,18,823.00
2011,07,09,11,19,825.20
2011,07,09,11,20,826.00
2011,07,09,11,21,824.30
2011,07,09,11,22,826.60
2011,07,09,11,23,830.90
2011,07,09,11,24,833.00
2011,07,09,11,25,835.40
2011,07,09,11,26,837.40
2011,07,09,11,27,842.00
2011,07,09,11,28,842.30
2011,07,09,11,29,843.90
2011,07,09,11,30,847.00
2011,07,09,11,31,848.00
2011,07,09,11,32,850.30
2011,07,09,11,33,849.90
2011,07,09,11,34,852.10
2011,07,09,11,35,853.70
2011,07,09,11,36,855.60
2011,07,09,11,37,862.30
2011,07,09,11,38,863.30
2011,07,09,11,39,868.30
2011,07,09,11,40,871.00
2011,07,09,11,41,874.40
2011,07,09,11,42,874.50
2011,07,09,11,43,874.60
2011,07,09,11,44,874.30
2011,07,09,11,45,874.00
2011,07,09,11,46,872.10
2011,07,09,11,47,873.80
2011,07,09,11,48,872.60
2011,07,09,11,49,875.60
2011,07,09,11,50,877.80
2011,07,09,11,51,880.50
2011,07,09,11,52,882.00
2011,07,09,11,53,882.00
2011,07,09,11,54,882.00
2011,07,09,11,55,884.00
2011,07,09,11,56,886.30
2011,07,09,11,57,888.00
2011,07,09,11,58,889.10
2011,07,09,11,59,889.60
2011,07,09,12,00,886.80
2011,07,09,12,01,886.00
2011,07,09,12,02,887.60
2011,07,09,12,03,888.80
2011,07,09,12,04,881.70
2011,07,09,12,05,879.60
2011,07,09,12,06,881.70
2011,07,09,12,07,881.40
2011,07,09,12,08,882.00
2011,07,09,12,09,885.80
2011,07,09,12,10,899.80
2011,07,09,12,11,906.50
2011,07,09,12,12,907.00
2011,07,09,12,13,909.00
2011,07,09,12,14,909.60
2011,07,09,12,15,913.20
2011,07,09,12,16,917.30
2011,07,09,12,17,919.00
2011,07,09,12,18,883.90
2011,07,09,12,19,863.50
2011,07,09,12,20,880.10
2011,07,09,12,21,949.00
2011,07,09,12,22,949.00
2011,07,09,12,23,948.40
2011,07,09,12,24,947.70
2011,07,09,12,25,947.50
2011,07,09,12,26,948.90
2011,07,09,12,27,952.30
2011,07,09,12,28,951.30
2011,07,09,12,29,949.20
2011,07,09,12,30,943.90
2011,07,09,12,31,939.40
2011,07,09,12,32,934.50
2011,07,09,12,33,927.10
2011,07,09,12,34,918.30
2011,07,09,12,35,912.70
2011,07,09,12,36,912.00
2011,07,09,12,37,911.20
2011,07,09,12,38,911.10
2011,07,09,12,39,911.80
2011,07,09,12,40,911.30
2011,07,09,12,41,911.70
2011,07,09,12,42,910.10
2011,07,09,12,43,910.70
2011,07,09,12,44,909.90
2011,07,09,12,45,909.00
2011,07,09,12,46,910.80
2011,07,09,12,47,911.00
2011,07,09,12,48,911.60
2011,07,09,12,49,913.40
2011,07,09,12,50,912.00
2011,07,09,12,51,912.00
2011,07,09,12,52,911.30
2011,07,09,12,53,911.80
2011,07,09,12,54,913.70
2011,07,09,12,55,912.10
2011,07,09,12,56,912.00
2011,07,09,12,57,912.80
2011,07,09,12,58,916.00
2011,07,09,12,59,916.00
2011,07,09,13,00,913.90
2011,07,09,13,01,914.60
2011,07,09,13,02,916.00
2011,07,09,13,03,917.80
2011,07,09,13,04,919.00
2011,07,09,13,05,918.80
2011,07,09,13,06,918.00
2011,07,09,13,07,918.00
2011,07,09,13,08,916.10
2011,07,09,13,09,916.30
2011,07,09,13,10,916.60
2011,07,09,13,11,917.70
2011,07,09,13,12,918.00
2011,07,09,13,13,919.00
2011,07,09,13,14,919.00
2011,07,09,13,15,919.60
2011,07,09,13,16,921.80
2011,07,09,13,17,920.90
2011,07,09,13,18,919.00
2011,07,09,13,19,920.40
2011,07,09,13,20,922.70
2011,07,09,13,21,921.20
2011,07,09,13,22,922.40
2011,07,09,13,23,919.00
2011,07,09,13,24,919.70
2011,07,09,13,25,921.00
2011,07,09,13,26,921.00
2011,07,09,13,27,917.60
2011,07,09,13,28,914.40
2011,07,09,13,29,918.50
2011,07,09,13,30,918.20
2011,07,09,13,31,918.40
2011,07,09,13,32,916.80
2011,07,09,13,33,918.60
2011,07,09,13,34,916.90
2011,07,09,13,35,916.00
2011,07,09,13,36,916.00
2011,07,09,13,37,914.30
2011,07,09,13,38,915.90
2011,07,09,13,39,916.00
2011,07,09,13,40,915.60
2011,07,09,13,41,915.50
2011,07,09,13,42,918.50
2011,07,09,13,43,920.10
2011,07,09,13,44,914.20
2011,07,09,13,45,918.50
2011,07,09,13,46,922.80
2011,07,09,13,47,916.00
2011,07,09,13,48,915.70
2011,07,09,13,49,913.50
2011,07,09,13,50,912.00
2011,07,09,13,51,912.00
2011,07,09,13,52,912.00
2011,07,09,13,53,912.00
2011,07,09,13,54,913.60
2011,07,09,13,55,909.30
2011,07,09,13,56,909.20
2011,07,09,13,57,910.20
2011,07,09,13,58,907.00
2011,07,09,13,59,907.80
2011,07,09,14,00,909.00
2011,07,09,14,01,906.50
2011,07,09,14,02,901.30
2011,07,09,14,03,894.10
2011,07,09,14,04,903.50
2011,07,09,14,05,905.60
2011,07,09,14,06,910.90
2011,07,09,14,07,918.00
2011,07,09,14,08,911.40
2011,07,09,14,09,906.80
2011,07,09,14,10,909.00
2011,07,09,14,11,911.40
2011,07,09,14,12,912.00
2011,07,09,14,13,911.80
2011,07,09,14,14,910.00
2011,07,09,14,15,912.40
2011,07,09,14,16,910.30
2011,07,09,14,17,913.10
2011,07,09,14,18,879.30
2011,07,09,14,19,897.40
2011,07,09,14,20,909.80
2011,07,09,14,21,907.10
2011,07,09,14,22,904.00
2011,07,09,14,23,904.00
2011,07,09,14,24,904.30
2011,07,09,14,25,906.80
2011,07,09,14,26,909.00
2011,07,09,14,27,907.60
2011,07,09,14,28,905.50
2011,07,09,14,29,904.20
2011,07,09,14,30,905.20
2011,07,09,14,31,907.60
2011,07,09,14,32,901.50
2011,07,09,14,33,897.50
2011,07,09,14,34,889.70
2011,07,09,14,35,884.80
2011,07,09,14,36,882.00
2011,07,09,14,37,846.50
2011,07,09,14,38,794.10
2011,07,09,14,39,777.60
2011,07,09,14,40,765.20
2011,07,09,14,41,760.30
2011,07,09,14,42,752.00
2011,07,09,14,43,793.80
2011,07,09,14,44,820.40
2011,07,09,14,45,815.30
2011,07,09,14,46,800.40
2011,07,09,14,47,780.20
2011,07,09,14,48,786.40
2011,07,09,14,49,809.70
2011,07,09,14,50,809.30
2011,07,09,14,51,811.80
2011,07,09,14,52,827.30
2011,07,09,14,53,856.20
2011,07,09,14,54,861.80
2011,07,09,14,55,834.70
2011,07,09,14,56,823.20
2011,07,09,14,57,837.50
2011,07,09,14,58,836.50
2011,07,09,14,59,830.90
2011,07,09,15,00,818.60
2011,07,09,15,01,826.70
2011,07,09,15,02,832.10
2011,07,09,15,03,825.40
2011,07,09,15,04,821.30
2011,07,09,15,05,828.60
2011,07,09,15,06,851.80
2011,07,09,15,07,848.00
2011,07,09,15,08,835.00
2011,07,09,15,09,828.70
2011,07,09,15,10,802.00
2011,07,09,15,11,787.40
2011,07,09,15,12,780.60
2011,07,09,15,13,779.30
2011,07,09,15,14,770.80
2011,07,09,15,15,760.00
2011,07,09,15,16,759.60
2011,07,09,15,17,754.90
2011,07,09,15,18,749.40
2011,07,09,15,19,739.10
2011,07,09,15,20,747.10
2011,07,09,15,21,751.70
2011,07,09,15,22,753.80
2011,07,09,15,23,750.40
2011,07,09,15,24,747.40
2011,07,09,15,25,769.90
2011,07,09,15,26,784.30
2011,07,09,15,27,775.80
2011,07,09,15,28,774.50
2011,07,09,15,29,769.00
2011,07,09,15,30,808.90
2011,07,09,15,31,849.80
2011,07,09,15,32,855.00
2011,07,09,15,33,852.80
2011,07,09,15,34,845.40
2011,07,09,15,35,845.30
2011,07,09,15,36,836.80
2011,07,09,15,37,838.50
2011,07,09,15,38,837.30
2011,07,09,15,39,825.00
2011,07,09,15,40,793.00
2011,07,09,15,41,793.90
2011,07,09,15,42,793.40
2011,07,09,15,43,793.30
2011,07,09,15,44,792.30
2011,07,09,15,45,771.80
2011,07,09,15,46,777.00
2011,07,09,15,47,790.40
2011,07,09,15,48,785.40
2011,07,09,15,49,769.10
2011,07,09,15,50,739.10
2011,07,09,15,51,771.80
2011,07,09,15,52,771.10
2011,07,09,15,53,751.60
2011,07,09,15,54,768.80
2011,07,09,15,55,771.30
2011,07,09,15,56,735.40
2011,07,09,15,57,707.00
2011,07,09,15,58,718.20
2011,07,09,15,59,748.60
2011,07,09,16,00,751.50
2011,07,09,16,01,750.90
2011,07,09,16,02,744.30
2011,07,09,16,03,756.80
2011,07,09,16,04,776.20
2011,07,09,16,05,766.70
2011,07,09,16,06,722.00
2011,07,09,16,07,724.10
2011,07,09,16,08,729.00
2011,07,09,16,09,725.00
2011,07,09,16,10,703.90
2011,07,09,16,11,696.80
2011,07,09,16,12,687.90
2011,07,09,16,13,661.00
2011,07,09,16,14,596.50
2011,07,09,16,15,570.90
2011,07,09,16,16,551.50
2011,07,09,16,17,584.90
2011,07,09,16,18,610.70
2011,07,09,16,19,599.10
2011,07,09,16,20,596.50
2011,07,09,16,21,615.10
2011,07,09,16,22,632.40
2011,07,09,16,23,592.30
2011,07,09,16,24,632.00
2011,07,09,16,25,636.90
2011,07,09,16,26,641.10
2011,07,09,16,27,598.40
2011,07,09,16,28,573.00
2011,07,09,16,29,596.60
2011,07,09,16,30,561.20
2011,07,09,16,31,572.10
2011,07,09,16,32,578.50
2011,07,09,16,33,572.40
2011,07,09,16,34,580.40
2011,07,09,16,35,584.00
2011,07,09,16,36,605.40
2011,07,09,16,37,612.60
2011,07,09,16,38,606.60
2011,07,09,16,39,611.90
2011,07,09,16,40,610.30
2011,07,09,16,41,620.20
2011,07,09,16,42,646.80
2011,07,09,16,43,643.10
2011,07,09,16,44,633.90
2011,07,09,16,45,623.00
2011,07,09,16,46,602.60
2011,07,09,16,47,569.30
2011,07,09,16,48,570.50
2011,07,09,16,49,568.80
2011,07,09,16,50,581.80
2011,07,09,16,51,585.00
2011,07,09,16,52,585.00
2011,07,09,16,53,584.30
2011,07,09,16,54,582.50
2011,07,09,16,55,574.40
2011,07,09,16,56,568.50
2011,07,09,16,57,575.80
2011,07,09,16,58,555.80
2011,07,09,16,59,531.40
2011,07,09,17,00,526.50
2011,07,09,17,01,528.80
2011,07,09,17,02,533.10
2011,07,09,17,03,541.10
2011,07,09,17,04,536.70
2011,07,09,17,05,511.70
2011,07,09,17,06,497.30
2011,07,09,17,07,491.20
2011,07,09,17,08,465.80
2011,07,09,17,09,447.40
2011,07,09,17,10,449.80